Regional Weather Roundup
Issued by NWS Austin/San Antonio, TX

Home | Current Version | Previous Version | Text Only | Print | Product List | Glossary On
Versions: 1 2 3 4 5 6 7 8 9 10 11 12 13 14 15 16 17 18 19 20 21 22 23 24 25 26 27 28 29 30 31 32 33 34 35 36 37 38 39 40 41 42 43 44 45 46 47 48 49 50
034
ASUS44 KEWX 191810
RWREWX
SOUTH TEXAS REGIONAL WEATHER ROUNDUP
NATIONAL WEATHER SERVICE AUSTIN/SAN ANTONIO TX
1200 PM CST MON FEB 19 2018

NOTE: "FAIR" INDICATED FEW OR NO CLOUDS BELOW 12,000 FEET WITH NO
SIGNIFICANT WEATHER AND/OR OBSTRUCTIONS TO VISIBILITY.

* - THESE STATIONS ARE NOT NWS OR FAA STATIONS...AND ARE NOT SUBJECT
    TO NWS AND FAA QUALITY CONTROL.

TXZ171-172-183>190-191900-
TEXAS HILL COUNTRY AND EDWARDS PLATEAU

CITY           SKY/WX    TMP DP  RH WIND       PRES   REMARKS
JUNCTION       CLOUDY    71  62  73 S24G33    29.86F
6HR MIN TEMP:  66; 6HR MAX TEMP:  71; 6HR PCP: TRACE;

*LLANO           N/A    N/A N/A N/A MISG        N/A
BURNET         CLOUDY    73  60  63 S17G35    29.91F
6HR MIN TEMP:  67; 6HR MAX TEMP:  73;

*HORSESHOE BAY CLOUDY    75  60  59 S22G35    29.87F
6HR MIN TEMP:  68; 6HR MAX TEMP:  75;

*KERRVILLE     CLOUDY    72  62  71 S16G29    29.91F
6HR MIN TEMP:  65; 6HR MAX TEMP:  72;

*FREDERICKSBRG CLOUDY    71  58  64 S17G25    29.90F
6HR MIN TEMP:  66; 6HR MAX TEMP:  72;

*ROCKSPRINGS   CLOUDY    64  61  88 S16G24    29.94F
*BOERNE STAGE  CLOUDY    72  61  68 S22G30    29.93F
*CASTROVILLE   CLOUDY    76  60  57 S20       29.92F
HONDO          CLOUDY    77  62  59 S21       29.90F
6HR MIN TEMP:  69; 6HR MAX TEMP:  78;

*UVALDE        CLOUDY    73  63  70 S13       29.90S
6HR MIN TEMP:  66; 6HR MAX TEMP:  73;

DEL RIO        CLOUDY    72  65  78 SE13      29.83F
6HR MIN TEMP:  67; 6HR MAX TEMP:  72;

LAUGHLIN AFB   PTSUNNY   73  64  73 S13       29.84F
6HR MIN TEMP:  67; 6HR MAX TEMP:  73;

CARRIZO SPRGS  CLOUDY    79  63  57 S15G24    29.86F
*EAGLE PASS    MOCLDY    75  64  69 S8G15     29.85F
*FAITH RANCH   MOSUNNY   79  64  61 S12G21    29.86F
$$

TXZ173-191>194-202-209-217>225-228-191900-
CENTRAL AND SOUTH CENTRAL TEXAS

CITY           SKY/WX    TMP DP  RH WIND       PRES   REMARKS
GEORGETOWN     PTSUNNY   76  62  62 S24G35    29.90F
6HR MIN TEMP:  68; 6HR MAX TEMP:  77;

AUSTIN/BERGSTM PTSUNNY   78  65  63 S25G37    29.90F
6HR MIN TEMP:  68; 6HR MAX TEMP:  79;

AUSTIN/MABRY   CLOUDY    77  62  59 S12G24    29.91F
6HR MIN TEMP:  69; 6HR MAX TEMP:  77;

*AUSTIN/EXEC   CLOUDY    77  63  61 S20G28    29.91F
*LAGO VISTA    CLOUDY    75  62  63 S13G24    29.91F
6HR MIN TEMP:  68; 6HR MAX TEMP:  76;

SAN MARCOS     CLOUDY    77  63  61 S21G28    29.92F
6HR MIN TEMP:  67; 6HR MAX TEMP:  79;

NEW BRAUNFELS  CLOUDY    78  62  57 S23G35    29.90F
6HR MIN TEMP:  68; 6HR MAX TEMP:  78;

RANDOLPH AFB   CLOUDY    75  64  67 S23       29.91F
6HR MIN TEMP:  68; 6HR MAX TEMP:  76;

PT SAN ANTONIO CLOUDY    75  64  67 SE16      29.89F
6HR MIN TEMP:  68; 6HR MAX TEMP:  76;

SAN ANTONIO    CLOUDY    75  62  64 S16G28    29.92F
6HR MIN TEMP:  67; 6HR MAX TEMP:  75; 6HR PCP: TRACE;

STINSON FIELD  CLOUDY    78  64  61 S14       29.89F
6HR MIN TEMP:  70; 6HR MAX TEMP:  78;

*LA GRANGE     CLOUDY    79  67  68 S23G33    29.92F
6HR MIN TEMP:  71; 6HR MAX TEMP:  79;

*GIDDINGS      PTSUNNY   76  63  65 S18G25    29.95F
6HR MIN TEMP:  68; 6HR MAX TEMP:  76;

*GONZALES      CLOUDY    78  67  69 S20G29    29.92F
6HR MIN TEMP:  71; 6HR MAX TEMP:  79;

$$

TXZ163>164-176>182-195>201-210>213-226-227-235-191900-
SOUTHEAST TEXAS

CITY           SKY/WX    TMP DP  RH WIND       PRES   REMARKS
COLLEGE STN    PTSUNNY   77  64  64 S28G38    29.94F
6HR MIN TEMP:  68; 6HR MAX TEMP:  77;

*BRYAN         CLOUDY    76  63  65 S23G33    29.95F
6HR MIN TEMP:  67; 6HR MAX TEMP:  76;

*CALDWELL      CLOUDY    75  64  68 S22G29    29.95F
6HR MIN TEMP:  68; 6HR MAX TEMP:  77;

*CROCKETT      PTSUNNY   75  64  69 S16G25    30.00F
*BRENHAM       PTSUNNY   78  65  64 S17G28    29.96F
6HR MIN TEMP:  71; 6HR MAX TEMP:  78;

HUNTSVILLE     MOSUNNY   77  63  61 S16G30    29.97F
6HR MIN TEMP:  70; 6HR MAX TEMP:  78;

CONROE         PTSUNNY   79  65  62 S20G28    30.00F
6HR MIN TEMP:  69; 6HR MAX TEMP:  80;

HOUSTON BUSH   PTSUNNY   79  65  62 S21G28    30.01F
6HR MIN TEMP:  70; 6HR MAX TEMP:  79;

HOUSTON HOBBY  PTSUNNY   77  68  73 S16G25    30.01F
6HR MIN TEMP:  67; 6HR MAX TEMP:  77;

*HOUSTON SW AP CLOUDY    77  67  70 S13G24    30.01F
6HR MIN TEMP:  66; 6HR MAX TEMP:  78;

PEARLAND       CLOUDY    75  68  78 S17G23    30.04F
6HR MIN TEMP:  67; 6HR MAX TEMP:  76;

HOUSTON HOOKS  PTSUNNY   79  65  62 S15G23    30.00F
6HR MIN TEMP:  70; 6HR MAX TEMP:  79;

ELLINGTON FLD  PTSUNNY   75  70  83 S17G25    30.04F
SUGAR LAND     PTSUNNY   82  66  58 S22G30    29.99F
6HR MIN TEMP:  72; 6HR MAX TEMP:  82;

*HOUSTON EXEC  PTSUNNY   79  66  65 S22G30    29.99F
*CLEVELAND MUN PTSUNNY   77  62  58 S20G28    30.02F
6HR MIN TEMP:  68; 6HR MAX TEMP:  79;

*WHARTON       PTSUNNY   77  65  65 SE21      29.99F
6HR MIN TEMP:  68; 6HR MAX TEMP:  77;

*COLUMBUS      CLOUDY    75  66  72 S18G24    29.97F
6HR MIN TEMP:  69; 6HR MAX TEMP:  76;

*EAGLE LAKE    CLOUDY    79  69  71 S21G28    29.97F
6HR MIN TEMP:  71; 6HR MAX TEMP:  79;

$$

TXZ214>216-236>238-191900-
THE UPPER TEXAS COAST

CITY           SKY/WX    TMP DP  RH WIND       PRES   REMARKS
*ORANGE        FAIR      78  63  60 S17G23    30.09F
6HR MIN TEMP:  66; 6HR MAX TEMP:  78;

PORT ARTHUR    FAIR      78  63  59 S20G32    30.06F
6HR MIN TEMP:  66; 6HR MAX TEMP:  79;

GALVESTON      FAIR      75  67  76 SE15      30.04F
6HR MIN TEMP:  68; 6HR MAX TEMP:  75;

ANGLETON       PTSUNNY   79  66  64 S20G35    30.01F
6HR MIN TEMP:  70; 6HR MAX TEMP:  79;

*BAY CITY      PTSUNNY   78  68  70 S24G31    30.00F
PALACIOS       MOSUNNY   78  70  76 SE23G31   29.97F
6HR MIN TEMP:  68; 6HR MAX TEMP:  78;

$$

TXZ229>234-239>247-191900-
TEXAS COASTAL BEND AND RIO GRANDE PLAINS

CITY           SKY/WX    TMP DP  RH WIND       PRES   REMARKS
VICTORIA       CLOUDY    79  66  64 S32G41    29.94F
6HR MIN TEMP:  70; 6HR MAX TEMP:  81;

*BEEVILLE      CLOUDY    78  68  72 S25G33    29.90F
6HR MIN TEMP:  68; 6HR MAX TEMP:  78;

ROCKPORT       MOSUNNY   76  68  76 SE18G25   29.93F HAZE
6HR MIN TEMP:  68; 6HR MAX TEMP:  77;

*PORT ARANSAS  NOT AVBL
*PORT LAVACA   PTSUNNY   79  67  66 S26G35    29.96F
6HR MIN TEMP:  68; 6HR MAX TEMP:  80;

*INGLESIDE     CLOUDY    77  69  76 MISG      29.93S
CORPUS CHRISTI CLOUDY    77  70  79 S29G38    29.91F
6HR MIN TEMP:  69; 6HR MAX TEMP:  77; 6HR PCP: TRACE;

CORPUS NAS     CLOUDY    77  69  76 SE24G37   29.92F
6HR MIN TEMP:  69; 6HR MAX TEMP:  78;

*ROBSTOWN      PTSUNNY   79  69  71 S35G40    29.91F
6HR MIN TEMP:  68; 6HR MAX TEMP:  79;

ALICE          PTSUNNY   85  65  51 S25G38    29.86F
6HR MIN TEMP:  68; 6HR MAX TEMP:  85;

KINGSVILLE NAS PTSUNNY   82  69  64 SE25G37   29.88F
6HR MIN TEMP:  68; 6HR MAX TEMP:  83;

COTULLA        CLOUDY    78  63  59 S13G21    29.86F
6HR MIN TEMP:  68; 6HR MAX TEMP:  78;

LAREDO         CLOUDY    81  64  56 S14       29.86F
6HR MIN TEMP:  69; 6HR MAX TEMP:  81;

$$

TXZ248>255-191900-
DEEP SOUTH TEXAS

CITY           SKY/WX    TMP DP  RH WIND       PRES   REMARKS
BROWNSVILLE    CLOUDY    82  69  64 S33G41    29.93F
6HR MIN TEMP:  71; 6HR MAX TEMP:  82;

PORT ISABEL    CLOUDY    79  68  69 S29G43    29.91F
6HR MIN



USA.gov is the U.S. government's official web portal to all federal, state and local government web resources and services.